Find Inmarsat 5F1

NORAD ID: 39476 Int'l Des: 2013-073 Owner: INMRL Country: UK operational
HEOCIRCULARGSOGEO

Live-Position

3D-Globus wird geladen...

Über Inmarsat 5F1

Beschreibung wird geladen...

Nächste Überflüge

Passes for default location (London). Set your location on the main map for personalized predictions.

Höhenverlauf

Loading altitude history...

Zweizeiliger Elementsatz

1 39476U 13073A 26105.86095433 .00000000 00000-0 00000+0 0 9994
2 39476 0.0158 217.3777 0000856 354.5712 4.5799 1.00269378 44957
Epoch: 15. Apr. 2026 • Age: 10 hours

Aktueller Status

Höhe 35790.2 km
Geschwindigkeit 3.07 km/s
Subsatellitenpunkt 0.02°N, 62.56°E
Startdatum 8. Dez. 2013
Alter 12.3 years
Typ communications

Technische Details

Klassifizierung Payload
Masse 6090.00 kg
Trockenmasse 3500.00 kg
Gesamtmasse 6090.00 kg
Länge 7.00 m
Durchmesser 3.20 m
Spannweite 33.80 m
Form Box + 2 pan
Hersteller BOES
Bus-Typ BSS-702HP
Phasenstatus In Orbit
Besitzer/Staat INMRL/UK

Most Searched